Regional Weather Roundup
Issued by NWS Upton, NY

Current Version | Previous Version | Text Only | Print | Product List | Glossary On
Versions: 1 2 3 4 5 6 7 8 9 10 11 12 13 14 15 16 17 18 19 20 21 22 23 24 25 26 27
000 ASUS41 KOKX 260708 RWROKX REGIONAL WEATHER ROUNDUP NATIONAL WEATHER SERVICE NEW YORK NY 300 AM EDT SUN MAR 26 2017 NOTE: "FAIR" INDICATES FEW OR NO CLOUDS BELOW 12,000 FEET WITH NO SIGNIFICANT WEATHER AND/OR OBSTRUCTIONS TO VISIBILITY. NYZ071-072-176-178-NJZ106-104-260800- NEW YORK CITY METRO AREA CITY SKY/WX TMP DP RH WIND PRES REMARKS Central Park LGT RAIN 40 35 83 VRB7 30.44R Wall St Helipt CLOUDY 41 36 81 NE16 30.42S LaGuardia APRT CLOUDY 42 34 73 NE17 30.42R Kennedy INTL LGT RAIN 42 37 82 NE8 30.43R Breezy Point N/A 41 N/A N/A NE9 N/A Newark/Liberty LGT RAIN 42 34 73 NE15 30.41S Teterboro LGT RAIN 42 34 73 NE15G22 30.41S $$ NYZ177-179-078>081-260800- LONG ISLAND NEW YORK CITY SKY/WX TMP DP RH WIND PRES REMARKS Jones Beach N/A 39 N/A N/A NE10 N/A WCI 32 Matinecock PT N/A 37 N/A N/A E16 N/A WCI 28 Farmingdale LGT RAIN 40 36 86 NE7 30.41R MacArthur/ISP CLOUDY 40 36 86 NE8 30.41S WCI 34 Shirley MOCLDY 40 35 83 VRB3 30.43R Westhampton MOCLDY 39 33 79 NE8 30.43S WCI 33 East Hampton CLOUDY 37 32 82 NE5 30.42S WCI 33 Montauk N/A 38 34 85 NE7 30.44R WCI 33 $$ NYZ052-065-067-260800- HUDSON VALLEY CITY SKY/WX TMP DP RH WIND PRES REMARKS White Plains CLOUDY 38 32 79 E7 30.40S WCI 33 Newburgh MOCLDY 36 34 93 NE6 30.43R WCI 31 Montgomery CLOUDY 36 32 85 NE5 30.41R WCI 32 Poughkeepsie CLOUDY 34 31 88 N7 30.42F WCI 28 Albany CLOUDY 29 18 63 N6 30.46S WCI 23 $$ NJZ001-105-106-008-010-013-015-019>022-104-260800- NEW JERSEY CITY SKY/WX TMP DP RH WIND PRES REMARKS Newark/Liberty LGT RAIN 42 34 73 NE15 30.41S Teterboro LGT RAIN 42 34 73 NE15G22 30.41S Caldwell CLOUDY 40 36 86 NE7 30.42R Somerville CLOUDY 43 36 76 NE7 30.38R Linden RAIN 41 34 76 E14 30.41S Sussex LGT RAIN 36 34 92 NE5 30.40S WCI 32 Andover N/A 35 33 92 NE5 30.39S WCI 31 Trenton CLOUDY 43 39 86 E15 30.37R Millville CLOUDY 47 40 76 E12 30.31S Atlantic City CLOUDY 45 38 76 NE16 30.33S Wrightstown CLOUDY 42 38 86 NE14 30.33S Toms River CLOUDY 42 38 85 NE12G20 30.37F Belmar CLOUDY 41 38 89 NE12 30.39S $$ PAZ047>061-062-071-260800- EASTERN PENNSYLVANIA CITY SKY/WX TMP DP RH WIND PRES REMARKS Philadelphia CLOUDY 44 38 79 E10 30.35S Allentown CLOUDY 41 34 76 NE9 30.37R Scranton CLOUDY 40 34 79 E8 30.33S WCI 34 $$ CTZ002-004>006-009-010-012-RIZ004-006-007-MAZ004-011-015-260800- SOUTHERN NEW ENGLAND IN CT CITY SKY/WX TMP DP RH WIND PRES REMARKS Bradley INTL CLOUDY 30 29 96 N6 30.45R WCI 24 Hartford CLOUDY 31 30 96 N5 30.45R FOG WCI 26 Danbury CLOUDY 37 32 82 E10 30.42S WCI 30 Wtrbury/Oxford CLOUDY 36 28 75 NE7 30.41F WCI 30 Bridgeport CLOUDY 39 33 79 NE9 30.44R WCI 33 Meriden PTCLDY 35 31 85 N5 30.44R WCI 31 New Haven CLOUDY 35 32 88 N8 30.43S WCI 29 Chester NOT AVBL Groton PTCLDY 34 32 92 N3 30.43S Wilimantic CLOUDY 30 29 96 CALM 30.44S IN RI CITY SKY/WX TMP DP RH WIND PRES REMARKS Providence CLOUDY 32 27 81 N7 30.45R WCI 26 Block Island CLOUDY 36 33 89 NE9 30.43R WCI 29 Westerly CLOUDY 32 30 92 CALM 30.43S IN MA CITY SKY/WX TMP DP RH WIND PRES REMARKS Boston CLOUDY 33 26 75 N8 30.46R WCI 26 Worcester CLEAR 30 23 75 NE6 30.40R WCI 24 Westfield CLOUDY 28 27 96 N6 30.44R FOG WCI 22 Provincetown CLEAR 37 34 89 N5 30.44S WCI 33 Nantucket PTCLDY 33 31 92 N6 30.42S WCI 28 $$ ANZ330-335-338-340-345-350-353-355-260800- COASTAL MARINE OBSERVATIONS STATION/POSITION TIME SKY/WX TEMP WIND PRES VSBY WAVE AIR SEA DIR/SP/G HT/PER (UTC) (F) (DEG/KT/KT) (MB) (MI) (FT/S) NY HARB ENTRANCE 0550 42 42 80/ 16/ 17 1029.1 4/ 7 20 S FIRE ISLAND 0650 40 40 60/ 16/ 17 1028.9 4/ 5 GREAT SOUTH BAY NOT AVBL 23 SSW MONTAUK P 0650 40 43 1030.2 3/ 8 15 E BARNEGAT LI 0630 42 N/A 5/ 5 HUDSON CANYON 0550 42 45 60/ 21/ 25 1027.4 5/ 7 KINGS POINT 0648 40 39 1030.1 EXECUTION ROCKS NOT AVBL CENTRAL LI SOUND 0630 38 10/ 8/ 10 N/A 0 EASTERN LI SOUND NOT AVBL ROBBINS REEF 0648 41 40/ 14/ 16 1029.8 $$ >>>>>>>>>>>>>>>>>>>>>>>>>>>> KEY <<<<<<<<<<<<<<<<<<<<<<<<<<< > < > SKY/WX - Sky Condition/Present Weather < > TMP - Temperature in Fahrenheit < > DP - Dew Point in Fahrenheit < > RH - Relative Humidity in Percent < > WIND - Direction (from) and Speed in MPH < > PRES - Mean Sea Level Pressure (inches of Hg) < > WCI - Wind Chill Index < > VSB - VISIBILITY IN MILES < > HX - HEAT INDEX < > TC - TEMPERATURE IN CELSIUS < > VRB - VARIABLE WIND DIRECTION < > < >>>>>>>>>>>>>>>>>>>>>>>>>>>> KEY <<<<<<<<<<<<<<<<<<<<<<<<<<<

USA.gov is the U.S. government's official web portal to all federal, state and local government web resources and services.